Regional Weather Roundup
Issued by NWS Cleveland, OH

Home | Current Version | Previous Version | Text Only | Print | Product List | Glossary Off
Versions: 1 2 3 4 5 6 7 8 9 10 11 12 13 14 15 16 17 18 19 20 21 22 23 24 25 26 27 28 29 30 31 32 33 34 35 36 37 38 39 40 41 42 43 44 45 46 47 48 49 50

512
ASUS41 KCLE 080312
RWRCLE
OHIO REGIONAL WEATHER ROUNDUP
NATIONAL WEATHER SERVICE WILMINGTON, OH
1000 PM EST SUN FEB 07 2016

NOTE: "FAIR" INDICATES FEW OR NO CLOUDS BELOW 12,000 FEET WITH NO
SIGNIFICANT WEATHER AND/OR OBSTRUCTIONS TO VISIBILITY.

OHZ001>008-015>018-024>027-034-035-043-044-080400-
   NORTHWEST OHIO

CITY           SKY/WX    TMP DP  RH WIND       PRES   REMARKS
DEFIANCE       CLOUDY    44  32  62 SW6       29.75F
FINDLAY        CLOUDY    45  28  51 SW15      29.75F
TOLEDO EXPRESS CLOUDY    45  30  55 SW8       29.74F
TOLEDO EXEC    CLOUDY    45  28  51 S9        29.76S
LIMA           CLOUDY    45  28  51 S12       29.75F
$$

OHZ009>014-019>023-028>033-038-089-080400-
   NORTHEAST OHIO

CITY           SKY/WX    TMP DP  RH WIND       PRES   REMARKS
CLE-HOPKINS    CLOUDY    46  23  40 S12       29.82F
CLE-LAKEFRONT  CLOUDY    49  23  36 S15       29.79F
CUY CO. ARPT   CLOUDY    46  25  42 S14       29.81F
LORAIN-ELYRIA  CLOUDY    45  24  43 SW12      29.79F
ASHTABULA      FAIR      42  26  53 S8        29.83F
AKRON-CANTON   CLOUDY    39  25  57 S9        29.82F
WOOSTER        CLOUDY    41  25  53 S7        29.81F
MANSFIELD      MOCLDY    43  24  47 S10       29.79F
YOUNGSTOWN     MOCLDY    42  24  49 SE6       29.83F
$$

OHZ042-051>053-060>062-070>072-077>081-080400-
  SOUTHWEST OHIO

CITY           SKY/WX    TMP DP  RH WIND       PRES   REMARKS
CINC-COVINGTON CLOUDY    45  22  40 S7        29.81F
CINC-LUNKEN    CLOUDY    45  23  42 S10       29.83F
HAMILTON       CLOUDY    48  22  35 VRB5      29.82F
DAYTON         CLOUDY    45  23  42 S10       29.79F
WRIGHT-PAT AFB MOCLDY    47  20  34 S12       29.79F
DAYTON GENERAL CLOUDY    46  21  37 S9        29.79F
WILMINGTON     CLOUDY    41  25  53 S8        29.81F
$$

OHZ036-037-039>041-045>050-054>059-063>069-073>076-082>088-080400-
  CENTRAL AND SOUTHEAST OHIO

CITY           SKY/WX    TMP DP  RH WIND       PRES   REMARKS
COLUMBUS       MOCLDY    42  20  41 S8        29.82F
OSU AIRPORT    FAIR      44  22  41 S10       29.81F
BOLTON FIELD   FAIR      42  24  49 S9        29.82F
RICKENBACK AFB FAIR      41  23  49 S9        29.82F
NEWARK         CLOUDY    42  23  46 S6        29.83F
MARION         MOCLDY    43  24  47 S10       29.80F
LANCASTER      FAIR      40  23  50 S5        29.84F
ZANESVILLE     FAIR      42  22  44 S3        29.84F
NEW PHILLY     FAIR      34  26  72 E3        29.85F
$$




USA.gov is the U.S. government's official web portal to all federal, state and local government web resources and services.